owner,sensor,date,latitude,longitude,sea_surface_height_above_sea_level,qcFlag 
COMPS,ioos:station:USF.COMPS:BGC:1,2013-05-01T15:00:00Z,26.4040,-81.8810,-0.035,1111122 
COMPS,ioos:station:USF.COMPS:BGC:1,2013-05-01T15:06:00Z,26.4040,-81.8810,-0.021,1111122 
COMPS,ioos:station:USF.COMPS:BGC:1,2013-05-01T15:12:00Z,26.4040,-81.8810,0.002,1111122 
COMPS,ioos:station:USF.COMPS:BGC:1,2013-05-01T15:18:00Z,26.4040,-81.8810,-0.023,1111122 
COMPS,ioos:station:USF.COMPS:BGC:1,2013-05-01T15:24:00Z,26.4040,-81.8810,-0.035,1111122 
COMPS,ioos:station:USF.COMPS:BGC:1,2013-05-01T15:30:00Z,26.4040,-81.8810,-0.005,1111122 
COMPS,ioos:station:USF.COMPS:BGC:1,2013-05-01T15:36:00Z,26.4040,-81.8810,0.012,1111122 
COMPS,ioos:station:USF.COMPS:BGC:1,2013-05-01T15:42:00Z,26.4040,-81.8810,0.016,1111122 
COMPS,ioos:station:USF.COMPS:BGC:1,2013-05-01T15:48:00Z,26.4040,-81.8810,-0.016,1111122 
COMPS,ioos:station:USF.COMPS:BGC:1,2013-05-01T15:54:00Z,26.4040,-81.8810,0.025,1111122 
COMPS,ioos:station:USF.COMPS:BGC:1,2013-05-01T16:00:00Z,26.4040,-81.8810,0.016,1111122 
COMPS,ioos:station:USF.COMPS:BGC:1,2013-05-01T16:06:00Z,26.4040,-81.8810,0.032,1111122 
COMPS,ioos:station:USF.COMPS:BGC:1,2013-05-01T16:12:00Z,26.4040,-81.8810,-0.002,1111122 
COMPS,ioos:station:USF.COMPS:BGC:1,2013-05-01T16:18:00Z,26.4040,-81.8810,0.005,1111122 
COMPS,ioos:station:USF.COMPS:BGC:1,2013-05-01T16:24:00Z,26.4040,-81.8810,0.034,1111122 
COMPS,ioos:station:USF.COMPS:BGC:1,2013-05-01T16:30:00Z,26.4040,-81.8810,0.018,1111122 
COMPS,ioos:station:USF.COMPS:BGC:1,2013-05-01T16:36:00Z,26.4040,-81.8810,0.059,1111122 
COMPS,ioos:station:USF.COMPS:BGC:1,2013-05-01T16:42:00Z,26.4040,-81.8810,0.031,1111122 
COMPS,ioos:station:USF.COMPS:BGC:1,2013-05-01T16:48:00Z,26.4040,-81.8810,0.046,1111122 
COMPS,ioos:station:USF.COMPS:BGC:1,2013-05-01T16:54:00Z,26.4040,-81.8810,0.067,1111122 
COMPS,ioos:station:USF.COMPS:BGC:1,2013-05-01T17:00:00Z,26.4040,-81.8810,0.074,1111122 
COMPS,ioos:station:USF.COMPS:BGC:1,2013-05-01T17:06:00Z,26.4040,-81.8810,0.104,1111122 
COMPS,ioos:station:USF.COMPS:BGC:1,2013-05-01T17:12:00Z,26.4040,-81.8810,0.124,1111122 
COMPS,ioos:station:USF.COMPS:BGC:1,2013-05-01T17:18:00Z,26.4040,-81.8810,0.174,1111122 
COMPS,ioos:station:USF.COMPS:BGC:1,2013-05-01T17:24:00Z,26.4040,-81.8810,0.217,1111122 
COMPS,ioos:station:USF.COMPS:BGC:1,2013-05-01T17:30:00Z,26.4040,-81.8810,0.095,1111122 
COMPS,ioos:station:USF.COMPS:BGC:1,2013-05-01T17:36:00Z,26.4040,-81.8810,0.122,1111122 
COMPS,ioos:station:USF.COMPS:BGC:1,2013-05-01T17:42:00Z,26.4040,-81.8810,0.145,1111122 
COMPS,ioos:station:USF.COMPS:BGC:1,2013-05-01T17:48:00Z,26.4040,-81.8810,0.145,1111122 
COMPS,ioos:station:USF.COMPS:BGC:1,2013-05-01T17:54:00Z,26.4040,-81.8810,0.116,1111122 
COMPS,ioos:station:USF.COMPS:BGC:1,2013-05-01T18:00:00Z,26.4040,-81.8810,0.115,1111122 
COMPS,ioos:station:USF.COMPS:BGC:1,2013-05-01T18:06:00Z,26.4040,-81.8810,0.102,1111122 
COMPS,ioos:station:USF.COMPS:BGC:1,2013-05-01T18:12:00Z,26.4040,-81.8810,0.101,1111122 
COMPS,ioos:station:USF.COMPS:BGC:1,2013-05-01T18:18:00Z,26.4040,-81.8810,0.13,1111122 
COMPS,ioos:station:USF.COMPS:BGC:1,2013-05-01T18:24:00Z,26.4040,-81.8810,0.127,1111122 
COMPS,ioos:station:USF.COMPS:BGC:1,2013-05-01T18:30:00Z,26.4040,-81.8810,0.156,1111122 
COMPS,ioos:station:USF.COMPS:BGC:1,2013-05-01T18:36:00Z,26.4040,-81.8810,0.163,1111122 
COMPS,ioos:station:USF.COMPS:BGC:1,2013-05-01T18:42:00Z,26.4040,-81.8810,0.13,1111122 
COMPS,ioos:station:USF.COMPS:BGC:1,2013-05-01T18:48:00Z,26.4040,-81.8810,0.133,1111122 
COMPS,ioos:station:USF.COMPS:BGC:1,2013-05-01T18:54:00Z,26.4040,-81.8810,0.14,1111122 
COMPS,ioos:station:USF.COMPS:BGC:1,2013-05-01T19:00:00Z,26.4040,-81.8810,0.089,1111122 
COMPS,ioos:station:USF.COMPS:BGC:1,2013-05-01T19:06:00Z,26.4040,-81.8810,0.124,1111122 
COMPS,ioos:station:USF.COMPS:BGC:1,2013-05-01T19:12:00Z,26.4040,-81.8810,0.144,1111122 
COMPS,ioos:station:USF.COMPS:BGC:1,2013-05-01T19:18:00Z,26.4040,-81.8810,0.165,1111122 
COMPS,ioos:station:USF.COMPS:BGC:1,2013-05-01T19:24:00Z,26.4040,-81.8810,0.127,1111122 
COMPS,ioos:station:USF.COMPS:BGC:1,2013-05-01T19:30:00Z,26.4040,-81.8810,0.138,1111122 
COMPS,ioos:station:USF.COMPS:BGC:1,2013-05-01T19:36:00Z,26.4040,-81.8810,0.173,1111122 
COMPS,ioos:station:USF.COMPS:BGC:1,2013-05-01T19:42:00Z,26.4040,-81.8810,0.176,1111122 
COMPS,ioos:station:USF.COMPS:BGC:1,2013-05-01T19:48:00Z,26.4040,-81.8810,0.142,1111122 
COMPS,ioos:station:USF.COMPS:BGC:1,2013-05-01T19:54:00Z,26.4040,-81.8810,0.183,1111122 
COMPS,ioos:station:USF.COMPS:BGC:1,2013-05-01T20:00:00Z,26.4040,-81.8810,0.18,1111122 
COMPS,ioos:station:USF.COMPS:BGC:1,2013-05-01T20:06:00Z,26.4040,-81.8810,0.188,1111122 
COMPS,ioos:station:USF.COMPS:BGC:1,2013-05-01T20:12:00Z,26.4040,-81.8810,0.178,1111122 
COMPS,ioos:station:USF.COMPS:BGC:1,2013-05-01T20:18:00Z,26.4040,-81.8810,0.202,1111122 
COMPS,ioos:station:USF.COMPS:BGC:1,2013-05-01T20:24:00Z,26.4040,-81.8810,0.211,1111122 
COMPS,ioos:station:USF.COMPS:BGC:1,2013-05-01T20:30:00Z,26.4040,-81.8810,0.213,1111122 
COMPS,ioos:station:USF.COMPS:BGC:1,2013-05-01T20:36:00Z,26.4040,-81.8810,0.218,1111122 
COMPS,ioos:station:USF.COMPS:BGC:1,2013-05-01T20:42:00Z,26.4040,-81.8810,0.227,1111122 
COMPS,ioos:station:USF.COMPS:BGC:1,2013-05-01T20:48:00Z,26.4040,-81.8810,0.212,1111122 
COMPS,ioos:station:USF.COMPS:BGC:1,2013-05-01T20:54:00Z,26.4040,-81.8810,0.228,1111122 
COMPS,ioos:station:USF.COMPS:BGC:1,2013-05-01T21:00:00Z,26.4040,-81.8810,0.251,1111122 
COMPS,ioos:station:USF.COMPS:BGC:1,2013-05-01T21:06:00Z,26.4040,-81.8810,0.257,1111122 
COMPS,ioos:station:USF.COMPS:BGC:1,2013-05-01T21:12:00Z,26.4040,-81.8810,0.267,1111122 
COMPS,ioos:station:USF.COMPS:BGC:1,2013-05-01T21:18:00Z,26.4040,-81.8810,0.273,1111122 
COMPS,ioos:station:USF.COMPS:BGC:1,2013-05-01T21:24:00Z,26.4040,-81.8810,0.251,1111122 
COMPS,ioos:station:USF.COMPS:BGC:1,2013-05-01T21:30:00Z,26.4040,-81.8810,0.278,1111122 
COMPS,ioos:station:USF.COMPS:BGC:1,2013-05-01T21:36:00Z,26.4040,-81.8810,0.288,1111122 
COMPS,ioos:station:USF.COMPS:BGC:1,2013-05-01T21:42:00Z,26.4040,-81.8810,0.283,1111122 
COMPS,ioos:station:USF.COMPS:BGC:1,2013-05-01T21:48:00Z,26.4040,-81.8810,0.298,1111122 
COMPS,ioos:station:USF.COMPS:BGC:1,2013-05-01T21:54:00Z,26.4040,-81.8810,0.298,1111122 
COMPS,ioos:station:USF.COMPS:BGC:1,2013-05-01T22:00:00Z,26.4040,-81.8810,0.312,1111122 
COMPS,ioos:station:USF.COMPS:BGC:1,2013-05-01T22:06:00Z,26.4040,-81.8810,0.333,1111122 
COMPS,ioos:station:USF.COMPS:BGC:1,2013-05-01T22:12:00Z,26.4040,-81.8810,0.326,1111122 
COMPS,ioos:station:USF.COMPS:BGC:1,2013-05-01T22:18:00Z,26.4040,-81.8810,0.324,1111122 
COMPS,ioos:station:USF.COMPS:BGC:1,2013-05-01T22:24:00Z,26.4040,-81.8810,0.348,1111122 
COMPS,ioos:station:USF.COMPS:BGC:1,2013-05-01T22:30:00Z,26.4040,-81.8810,0.315,1111122 
COMPS,ioos:station:USF.COMPS:BGC:1,2013-05-01T22:36:00Z,26.4040,-81.8810,0.344,1111122 
COMPS,ioos:station:USF.COMPS:BGC:1,2013-05-01T22:42:00Z,26.4040,-81.8810,0.349,1111122 
COMPS,ioos:station:USF.COMPS:BGC:1,2013-05-01T22:48:00Z,26.4040,-81.8810,0.343,1111122 
COMPS,ioos:station:USF.COMPS:BGC:1,2013-05-01T22:54:00Z,26.4040,-81.8810,0.356,1111122 
COMPS,ioos:station:USF.COMPS:BGC:1,2013-05-01T23:00:00Z,26.4040,-81.8810,0.361,1111122 
COMPS,ioos:station:USF.COMPS:BGC:1,2013-05-01T23:06:00Z,26.4040,-81.8810,0.352,1111122 
COMPS,ioos:station:USF.COMPS:BGC:1,2013-05-01T23:12:00Z,26.4040,-81.8810,0.367,1111122 
COMPS,ioos:station:USF.COMPS:BGC:1,2013-05-01T23:18:00Z,26.4040,-81.8810,0.382,1111122 
COMPS,ioos:station:USF.COMPS:BGC:1,2013-05-01T23:24:00Z,26.4040,-81.8810,0.39,1111122 
COMPS,ioos:station:USF.COMPS:BGC:1,2013-05-01T23:30:00Z,26.4040,-81.8810,0.378,1111122 
COMPS,ioos:station:USF.COMPS:BGC:1,2013-05-01T23:36:00Z,26.4040,-81.8810,0.37,1111122 
COMPS,ioos:station:USF.COMPS:BGC:1,2013-05-01T23:42:00Z,26.4040,-81.8810,0.361,1111122 
COMPS,ioos:station:USF.COMPS:BGC:1,2013-05-01T23:48:00Z,26.4040,-81.8810,0.354,1111122 
COMPS,ioos:station:USF.COMPS:BGC:1,2013-05-01T23:54:00Z,26.4040,-81.8810,0.34,1111122 
COMPS,ioos:station:USF.COMPS:BGC:1,2013-05-02T00:00:00Z,26.4040,-81.8810,0.332,1111122 
COMPS,ioos:station:USF.COMPS:BGC:1,2013-05-02T00:06:00Z,26.4040,-81.8810,0.324,1111122 
COMPS,ioos:station:USF.COMPS:BGC:1,2013-05-02T00:12:00Z,26.4040,-81.8810,0.283,1111122 
COMPS,ioos:station:USF.COMPS:BGC:1,2013-05-02T00:18:00Z,26.4040,-81.8810,0.281,1111122 
COMPS,ioos:station:USF.COMPS:BGC:1,2013-05-02T00:24:00Z,26.4040,-81.8810,0.257,1111122 
COMPS,ioos:station:USF.COMPS:BGC:1,2013-05-02T00:30:00Z,26.4040,-81.8810,0.235,1111122 
COMPS,ioos:station:USF.COMPS:BGC:1,2013-05-02T00:36:00Z,26.4040,-81.8810,0.212,1111122 
COMPS,ioos:station:USF.COMPS:BGC:1,2013-05-02T00:42:00Z,26.4040,-81.8810,0.196,1111122 
COMPS,ioos:station:USF.COMPS:BGC:1,2013-05-02T00:48:00Z,26.4040,-81.8810,0.189,1111122 
COMPS,ioos:station:USF.COMPS:BGC:1,2013-05-02T00:54:00Z,26.4040,-81.8810,0.176,1111122 
COMPS,ioos:station:USF.COMPS:BGC:1,2013-05-02T01:00:00Z,26.4040,-81.8810,0.156,1111122 
COMPS,ioos:station:USF.COMPS:BGC:1,2013-05-02T01:06:00Z,26.4040,-81.8810,0.14,1111122 
COMPS,ioos:station:USF.COMPS:BGC:1,2013-05-02T01:12:00Z,26.4040,-81.8810,0.142,1111122 
COMPS,ioos:station:USF.COMPS:BGC:1,2013-05-02T01:18:00Z,26.4040,-81.8810,0.125,1111122 
COMPS,ioos:station:USF.COMPS:BGC:1,2013-05-02T01:24:00Z,26.4040,-81.8810,0.097,1111122 
COMPS,ioos:station:USF.COMPS:BGC:1,2013-05-02T01:30:00Z,26.4040,-81.8810,0.083,1111122 
COMPS,ioos:station:USF.COMPS:BGC:1,2013-05-02T01:36:00Z,26.4040,-81.8810,0.082,1111122 
COMPS,ioos:station:USF.COMPS:BGC:1,2013-05-02T01:42:00Z,26.4040,-81.8810,0.065,1111122 
COMPS,ioos:station:USF.COMPS:BGC:1,2013-05-02T01:48:00Z,26.4040,-81.8810,0.04,1111122 
COMPS,ioos:station:USF.COMPS:BGC:1,2013-05-02T01:54:00Z,26.4040,-81.8810,0.027,1111122 
COMPS,ioos:station:USF.COMPS:BGC:1,2013-05-02T02:00:00Z,26.4040,-81.8810,0.012,1111122 
COMPS,ioos:station:USF.COMPS:BGC:1,2013-05-02T02:06:00Z,26.4040,-81.8810,0.0,1114422 
COMPS,ioos:station:USF.COMPS:BGC:1,2013-05-02T02:12:00Z,26.4040,-81.8810,-0.02,1111122 
COMPS,ioos:station:USF.COMPS:BGC:1,2013-05-02T02:18:00Z,26.4040,-81.8810,-0.04,1111122 
COMPS,ioos:station:USF.COMPS:BGC:1,2013-05-02T02:24:00Z,26.4040,-81.8810,-0.041,1111122 
COMPS,ioos:station:USF.COMPS:BGC:1,2013-05-02T02:30:00Z,26.4040,-81.8810,-0.057,1111122 
COMPS,ioos:station:USF.COMPS:BGC:1,2013-05-02T02:36:00Z,26.4040,-81.8810,-0.086,1111122 
COMPS,ioos:station:USF.COMPS:BGC:1,2013-05-02T02:42:00Z,26.4040,-81.8810,-0.105,1111122 
COMPS,ioos:station:USF.COMPS:BGC:1,2013-05-02T02:48:00Z,26.4040,-81.8810,-0.112,1111122 
COMPS,ioos:station:USF.COMPS:BGC:1,2013-05-02T02:54:00Z,26.4040,-81.8810,-0.126,1111122 
COMPS,ioos:station:USF.COMPS:BGC:1,2013-05-02T03:00:00Z,26.4040,-81.8810,-0.145,1111122 
COMPS,ioos:station:USF.COMPS:BGC:1,2013-05-02T03:06:00Z,26.4040,-81.8810,-0.17,1111122 
COMPS,ioos:station:USF.COMPS:BGC:1,2013-05-02T03:12:00Z,26.4040,-81.8810,-0.178,1111122 
COMPS,ioos:station:USF.COMPS:BGC:1,2013-05-02T03:18:00Z,26.4040,-81.8810,-0.199,1111122 
COMPS,ioos:station:USF.COMPS:BGC:1,2013-05-02T03:24:00Z,26.4040,-81.8810,-0.213,1111122 
COMPS,ioos:station:USF.COMPS:BGC:1,2013-05-02T03:30:00Z,26.4040,-81.8810,-0.233,1111122 
COMPS,ioos:station:USF.COMPS:BGC:1,2013-05-02T03:36:00Z,26.4040,-81.8810,-0.239,1111122 
COMPS,ioos:station:USF.COMPS:BGC:1,2013-05-02T03:42:00Z,26.4040,-81.8810,-0.245,1111122 
COMPS,ioos:station:USF.COMPS:BGC:1,2013-05-02T03:48:00Z,26.4040,-81.8810,-0.263,1111122 
COMPS,ioos:station:USF.COMPS:BGC:1,2013-05-02T03:54:00Z,26.4040,-81.8810,-0.27,1111122 
COMPS,ioos:station:USF.COMPS:BGC:1,2013-05-02T04:00:00Z,26.4040,-81.8810,-0.282,1111122 
COMPS,ioos:station:USF.COMPS:BGC:1,2013-05-02T04:06:00Z,26.4040,-81.8810,-0.288,1111122 
COMPS,ioos:station:USF.COMPS:BGC:1,2013-05-02T04:12:00Z,26.4040,-81.8810,-0.298,1111122 
COMPS,ioos:station:USF.COMPS:BGC:1,2013-05-02T04:18:00Z,26.4040,-81.8810,-0.31,1111122 
COMPS,ioos:station:USF.COMPS:BGC:1,2013-05-02T04:24:00Z,26.4040,-81.8810,-0.312,1111122 
COMPS,ioos:station:USF.COMPS:BGC:1,2013-05-02T04:30:00Z,26.4040,-81.8810,-0.304,1111122 
COMPS,ioos:station:USF.COMPS:BGC:1,2013-05-02T04:36:00Z,26.4040,-81.8810,-0.306,1111122 
COMPS,ioos:station:USF.COMPS:BGC:1,2013-05-02T04:42:00Z,26.4040,-81.8810,-0.323,1111122 
COMPS,ioos:station:USF.COMPS:BGC:1,2013-05-02T04:48:00Z,26.4040,-81.8810,-0.345,1111122 
COMPS,ioos:station:USF.COMPS:BGC:1,2013-05-02T04:54:00Z,26.4040,-81.8810,-0.351,1111122 
COMPS,ioos:station:USF.COMPS:BGC:1,2013-05-02T05:00:00Z,26.4040,-81.8810,-0.352,1111122 
COMPS,ioos:station:USF.COMPS:BGC:1,2013-05-02T05:06:00Z,26.4040,-81.8810,-0.364,1111122 
COMPS,ioos:station:USF.COMPS:BGC:1,2013-05-02T05:12:00Z,26.4040,-81.8810,-0.382,1111122 
COMPS,ioos:station:USF.COMPS:BGC:1,2013-05-02T05:18:00Z,26.4040,-81.8810,-0.373,1111122 
COMPS,ioos:station:USF.COMPS:BGC:1,2013-05-02T05:24:00Z,26.4040,-81.8810,-0.372,1111122 
COMPS,ioos:station:USF.COMPS:BGC:1,2013-05-02T05:30:00Z,26.4040,-81.8810,-0.37,1111122 
COMPS,ioos:station:USF.COMPS:BGC:1,2013-05-02T05:36:00Z,26.4040,-81.8810,-0.381,1111122 
COMPS,ioos:station:USF.COMPS:BGC:1,2013-05-02T05:42:00Z,26.4040,-81.8810,-0.37,1111122 
COMPS,ioos:station:USF.COMPS:BGC:1,2013-05-02T05:48:00Z,26.4040,-81.8810,-0.377,1111122 
COMPS,ioos:station:USF.COMPS:BGC:1,2013-05-02T05:54:00Z,26.4040,-81.8810,-0.38,1111122 
COMPS,ioos:station:USF.COMPS:BGC:1,2013-05-02T06:00:00Z,26.4040,-81.8810,-0.391,1111122 
COMPS,ioos:station:USF.COMPS:BGC:1,2013-05-02T06:06:00Z,26.4040,-81.8810,-0.351,1111122 
COMPS,ioos:station:USF.COMPS:BGC:1,2013-05-02T06:12:00Z,26.4040,-81.8810,-0.365,1111122 
COMPS,ioos:station:USF.COMPS:BGC:1,2013-05-02T06:18:00Z,26.4040,-81.8810,-0.359,1111122 
COMPS,ioos:station:USF.COMPS:BGC:1,2013-05-02T06:24:00Z,26.4040,-81.8810,-0.351,1111122 
COMPS,ioos:station:USF.COMPS:BGC:1,2013-05-02T06:30:00Z,26.4040,-81.8810,-0.341,1111122 
COMPS,ioos:station:USF.COMPS:BGC:1,2013-05-02T06:36:00Z,26.4040,-81.8810,-0.339,1111122 
COMPS,ioos:station:USF.COMPS:BGC:1,2013-05-02T06:42:00Z,26.4040,-81.8810,-0.335,1111122 
COMPS,ioos:station:USF.COMPS:BGC:1,2013-05-02T06:48:00Z,26.4040,-81.8810,-0.323,1111122 
COMPS,ioos:station:USF.COMPS:BGC:1,2013-05-02T06:54:00Z,26.4040,-81.8810,-0.326,1111122 
COMPS,ioos:station:USF.COMPS:BGC:1,2013-05-02T07:00:00Z,26.4040,-81.8810,-0.29,1111122 
COMPS,ioos:station:USF.COMPS:BGC:1,2013-05-02T07:06:00Z,26.4040,-81.8810,-0.296,1111122 
COMPS,ioos:station:USF.COMPS:BGC:1,2013-05-02T07:12:00Z,26.4040,-81.8810,-0.274,1111122 
COMPS,ioos:station:USF.COMPS:BGC:1,2013-05-02T07:18:00Z,26.4040,-81.8810,-0.266,1111122 
COMPS,ioos:station:USF.COMPS:BGC:1,2013-05-02T07:24:00Z,26.4040,-81.8810,-0.266,1111122 
COMPS,ioos:station:USF.COMPS:BGC:1,2013-05-02T07:30:00Z,26.4040,-81.8810,-0.246,1111122 
COMPS,ioos:station:USF.COMPS:BGC:1,2013-05-02T07:36:00Z,26.4040,-81.8810,-0.247,1111122 
COMPS,ioos:station:USF.COMPS:BGC:1,2013-05-02T07:42:00Z,26.4040,-81.8810,-0.229,1111122 
COMPS,ioos:station:USF.COMPS:BGC:1,2013-05-02T07:48:00Z,26.4040,-81.8810,-0.191,1111122 
COMPS,ioos:station:USF.COMPS:BGC:1,2013-05-02T07:54:00Z,26.4040,-81.8810,-0.186,1111122 
COMPS,ioos:station:USF.COMPS:BGC:1,2013-05-02T08:00:00Z,26.4040,-81.8810,-0.202,1111122 
COMPS,ioos:station:USF.COMPS:BGC:1,2013-05-02T08:06:00Z,26.4040,-81.8810,-0.183,1111122 
COMPS,ioos:station:USF.COMPS:BGC:1,2013-05-02T08:12:00Z,26.4040,-81.8810,-0.165,1111122 
COMPS,ioos:station:USF.COMPS:BGC:1,2013-05-02T08:18:00Z,26.4040,-81.8810,-0.151,1111122 
COMPS,ioos:station:USF.COMPS:BGC:1,2013-05-02T08:24:00Z,26.4040,-81.8810,-0.147,1111122 
COMPS,ioos:station:USF.COMPS:BGC:1,2013-05-02T08:30:00Z,26.4040,-81.8810,-0.122,1111122 
COMPS,ioos:station:USF.COMPS:BGC:1,2013-05-02T08:36:00Z,26.4040,-81.8810,-0.115,1111122 
COMPS,ioos:station:USF.COMPS:BGC:1,2013-05-02T08:42:00Z,26.4040,-81.8810,-0.099,1111122 
COMPS,ioos:station:USF.COMPS:BGC:1,2013-05-02T08:48:00Z,26.4040,-81.8810,-0.09,1111122 
COMPS,ioos:station:USF.COMPS:BGC:1,2013-05-02T08:54:00Z,26.4040,-81.8810,-0.054,1111122 
COMPS,ioos:station:USF.COMPS:BGC:1,2013-05-02T09:00:00Z,26.4040,-81.8810,-0.063,1111122 
COMPS,ioos:station:USF.COMPS:BGC:1,2013-05-02T09:06:00Z,26.4040,-81.8810,-0.069,1111122 
COMPS,ioos:station:USF.COMPS:BGC:1,2013-05-02T09:12:00Z,26.4040,-81.8810,-0.038,1111122 
COMPS,ioos:station:USF.COMPS:BGC:1,2013-05-02T09:18:00Z,26.4040,-81.8810,-0.022,1111122 
COMPS,ioos:station:USF.COMPS:BGC:1,2013-05-02T09:24:00Z,26.4040,-81.8810,-0.016,1111122 
COMPS,ioos:station:USF.COMPS:BGC:1,2013-05-02T09:30:00Z,26.4040,-81.8810,0.001,1111122 
COMPS,ioos:station:USF.COMPS:BGC:1,2013-05-02T09:36:00Z,26.4040,-81.8810,0.027,1111122 
COMPS,ioos:station:USF.COMPS:BGC:1,2013-05-02T09:42:00Z,26.4040,-81.8810,0.036,1111122 
COMPS,ioos:station:USF.COMPS:BGC:1,2013-05-02T09:48:00Z,26.4040,-81.8810,0.031,1111122 
COMPS,ioos:station:USF.COMPS:BGC:1,2013-05-02T09:54:00Z,26.4040,-81.8810,0.047,1111122 
COMPS,ioos:station:USF.COMPS:BGC:1,2013-05-02T10:00:00Z,26.4040,-81.8810,0.067,1111122 
COMPS,ioos:station:USF.COMPS:BGC:1,2013-05-02T10:06:00Z,26.4040,-81.8810,0.091,1111122 
COMPS,ioos:station:USF.COMPS:BGC:1,2013-05-02T10:12:00Z,26.4040,-81.8810,0.086,1111122 
COMPS,ioos:station:USF.COMPS:BGC:1,2013-05-02T10:18:00Z,26.4040,-81.8810,0.1,1111122 
COMPS,ioos:station:USF.COMPS:BGC:1,2013-05-02T10:24:00Z,26.4040,-81.8810,0.097,1111122 
COMPS,ioos:station:USF.COMPS:BGC:1,2013-05-02T10:30:00Z,26.4040,-81.8810,0.102,1111122 
COMPS,ioos:station:USF.COMPS:BGC:1,2013-05-02T10:36:00Z,26.4040,-81.8810,0.093,1111122 
COMPS,ioos:station:USF.COMPS:BGC:1,2013-05-02T10:42:00Z,26.4040,-81.8810,0.118,1111122 
COMPS,ioos:station:USF.COMPS:BGC:1,2013-05-02T10:48:00Z,26.4040,-81.8810,0.135,1111122 
COMPS,ioos:station:USF.COMPS:BGC:1,2013-05-02T10:54:00Z,26.4040,-81.8810,0.115,1111122 
COMPS,ioos:station:USF.COMPS:BGC:1,2013-05-02T11:00:00Z,26.4040,-81.8810,0.124,1111122 
COMPS,ioos:station:USF.COMPS:BGC:1,2013-05-02T11:06:00Z,26.4040,-81.8810,0.145,1111122 
COMPS,ioos:station:USF.COMPS:BGC:1,2013-05-02T11:12:00Z,26.4040,-81.8810,0.157,1111122 
COMPS,ioos:station:USF.COMPS:BGC:1,2013-05-02T11:18:00Z,26.4040,-81.8810,0.155,1111122 
COMPS,ioos:station:USF.COMPS:BGC:1,2013-05-02T11:24:00Z,26.4040,-81.8810,0.161,1111122 
COMPS,ioos:station:USF.COMPS:BGC:1,2013-05-02T11:30:00Z,26.4040,-81.8810,0.168,1111122 
COMPS,ioos:station:USF.COMPS:BGC:1,2013-05-02T11:36:00Z,26.4040,-81.8810,0.171,1111122 
COMPS,ioos:station:USF.COMPS:BGC:1,2013-05-02T11:42:00Z,26.4040,-81.8810,0.157,1111122 
COMPS,ioos:station:USF.COMPS:BGC:1,2013-05-02T11:48:00Z,26.4040,-81.8810,0.166,1111122 
COMPS,ioos:station:USF.COMPS:BGC:1,2013-05-02T11:54:00Z,26.4040,-81.8810,0.173,1111122 
COMPS,ioos:station:USF.COMPS:BGC:1,2013-05-02T12:00:00Z,26.4040,-81.8810,0.186,1111122 
COMPS,ioos:station:USF.COMPS:BGC:1,2013-05-02T12:06:00Z,26.4040,-81.8810,0.19,1111122 
COMPS,ioos:station:USF.COMPS:BGC:1,2013-05-02T12:12:00Z,26.4040,-81.8810,0.164,1111122 
COMPS,ioos:station:USF.COMPS:BGC:1,2013-05-02T12:18:00Z,26.4040,-81.8810,0.164,1111122 
COMPS,ioos:station:USF.COMPS:BGC:1,2013-05-02T12:24:00Z,26.4040,-81.8810,0.184,1111122 
COMPS,ioos:station:USF.COMPS:BGC:1,2013-05-02T12:30:00Z,26.4040,-81.8810,0.159,1111122 
COMPS,ioos:station:USF.COMPS:BGC:1,2013-05-02T12:36:00Z,26.4040,-81.8810,0.183,1111122 
COMPS,ioos:station:USF.COMPS:BGC:1,2013-05-02T12:42:00Z,26.4040,-81.8810,0.171,1111122 
COMPS,ioos:station:USF.COMPS:BGC:1,2013-05-02T12:48:00Z,26.4040,-81.8810,0.147,1111122 
COMPS,ioos:station:USF.COMPS:BGC:1,2013-05-02T12:54:00Z,26.4040,-81.8810,0.16,1111122 
COMPS,ioos:station:USF.COMPS:BGC:1,2013-05-02T13:00:00Z,26.4040,-81.8810,0.148,1111122 
COMPS,ioos:station:USF.COMPS:BGC:1,2013-05-02T13:06:00Z,26.4040,-81.8810,0.133,1111122 
COMPS,ioos:station:USF.COMPS:BGC:1,2013-05-02T13:12:00Z,26.4040,-81.8810,0.128,1111122 
COMPS,ioos:station:USF.COMPS:BGC:1,2013-05-02T13:18:00Z,26.4040,-81.8810,0.127,1111122 
COMPS,ioos:station:USF.COMPS:BGC:1,2013-05-02T13:24:00Z,26.4040,-81.8810,0.152,1111122 
COMPS,ioos:station:USF.COMPS:BGC:1,2013-05-02T13:30:00Z,26.4040,-81.8810,0.106,1111122 
COMPS,ioos:station:USF.COMPS:BGC:1,2013-05-02T13:36:00Z,26.4040,-81.8810,0.084,1111122 
COMPS,ioos:station:USF.COMPS:BGC:1,2013-05-02T13:42:00Z,26.4040,-81.8810,0.095,1111122 
COMPS,ioos:station:USF.COMPS:BGC:1,2013-05-02T13:48:00Z,26.4040,-81.8810,0.093,1111122 
COMPS,ioos:station:USF.COMPS:BGC:1,2013-05-02T13:54:00Z,26.4040,-81.8810,0.068,1111122 
COMPS,ioos:station:USF.COMPS:BGC:1,2013-05-02T14:00:00Z,26.4040,-81.8810,0.063,1111122 
COMPS,ioos:station:USF.COMPS:BGC:1,2013-05-02T14:06:00Z,26.4040,-81.8810,0.073,1111122 
COMPS,ioos:station:USF.COMPS:BGC:1,2013-05-02T14:12:00Z,26.4040,-81.8810,0.081,1111122 
COMPS,ioos:station:USF.COMPS:BGC:1,2013-05-02T14:18:00Z,26.4040,-81.8810,0.045,1111122 
COMPS,ioos:station:USF.COMPS:BGC:1,2013-05-02T14:24:00Z,26.4040,-81.8810,0.042,1111122 
COMPS,ioos:station:USF.COMPS:BGC:1,2013-05-02T14:30:00Z,26.4040,-81.8810,0.064,1111122 
COMPS,ioos:station:USF.COMPS:BGC:1,2013-05-02T14:36:00Z,26.4040,-81.8810,0.057,1111122 
COMPS,ioos:station:USF.COMPS:BGC:1,2013-05-02T14:42:00Z,26.4040,-81.8810,0.027,1111122 
COMPS,ioos:station:USF.COMPS:BGC:1,2013-05-02T14:48:00Z,26.4040,-81.8810,-0.004,1111122 
COMPS,ioos:station:USF.COMPS:BGC:1,2013-05-02T14:54:00Z,26.4040,-81.8810,0.001,1111122 
COMPS,ioos:station:USF.COMPS:BGC:1,2013-05-02T15:00:00Z,26.4040,-81.8810,-0.016,1111122 
COMPS,ioos:station:USF.COMPS:BGC:1,2013-05-02T15:06:00Z,26.4040,-81.8810,-0.024,1111122 
COMPS,ioos:station:USF.COMPS:BGC:1,2013-05-02T15:12:00Z,26.4040,-81.8810,-0.056,1111122 
COMPS,ioos:station:USF.COMPS:BGC:1,2013-05-02T15:18:00Z,26.4040,-81.8810,-0.044,1111122 
COMPS,ioos:station:USF.COMPS:BGC:1,2013-05-02T15:24:00Z,26.4040,-81.8810,-0.036,1111122 
COMPS,ioos:station:USF.COMPS:BGC:1,2013-05-02T15:30:00Z,26.4040,-81.8810,-0.062,1111122 
COMPS,ioos:station:USF.COMPS:BGC:1,2013-05-02T15:36:00Z,26.4040,-81.8810,-0.089,1111122 
COMPS,ioos:station:USF.COMPS:BGC:1,2013-05-02T15:42:00Z,26.4040,-81.8810,-0.102,1111122 
COMPS,ioos:station:USF.COMPS:BGC:1,2013-05-02T15:48:00Z,26.4040,-81.8810,-0.082,1111122 
COMPS,ioos:station:USF.COMPS:BGC:1,2013-05-02T15:54:00Z,26.4040,-81.8810,-0.09,1111122 
COMPS,ioos:station:USF.COMPS:BGC:1,2013-05-02T16:00:00Z,26.4040,-81.8810,-0.119,1111122 
COMPS,ioos:station:USF.COMPS:BGC:1,2013-05-02T16:06:00Z,26.4040,-81.8810,-0.12,1111122 
COMPS,ioos:station:USF.COMPS:BGC:1,2013-05-02T16:12:00Z,26.4040,-81.8810,-0.113,1111122 
COMPS,ioos:station:USF.COMPS:BGC:1,2013-05-02T16:18:00Z,26.4040,-81.8810,-0.131,1111122 
COMPS,ioos:station:USF.COMPS:BGC:1,2013-05-02T16:24:00Z,26.4040,-81.8810,-0.128,1111122 
COMPS,ioos:station:USF.COMPS:BGC:1,2013-05-02T16:30:00Z,26.4040,-81.8810,-0.119,1111122 
COMPS,ioos:station:USF.COMPS:BGC:1,2013-05-02T16:36:00Z,26.4040,-81.8810,-0.085,1111122 
COMPS,ioos:station:USF.COMPS:BGC:1,2013-05-02T16:42:00Z,26.4040,-81.8810,-0.107,1111122 
COMPS,ioos:station:USF.COMPS:BGC:1,2013-05-02T16:48:00Z,26.4040,-81.8810,-0.082,1111122 
COMPS,ioos:station:USF.COMPS:BGC:1,2013-05-02T16:54:00Z,26.4040,-81.8810,-0.06,1111122 
COMPS,ioos:station:USF.COMPS:BGC:1,2013-05-02T17:00:00Z,26.4040,-81.8810,-0.069,1111122 
COMPS,ioos:station:USF.COMPS:BGC:1,2013-05-02T17:06:00Z,26.4040,-81.8810,-0.096,1111122 
COMPS,ioos:station:USF.COMPS:BGC:1,2013-05-02T17:12:00Z,26.4040,-81.8810,-0.079,1111122 
COMPS,ioos:station:USF.COMPS:BGC:1,2013-05-02T17:18:00Z,26.4040,-81.8810,-0.072,1111122 
COMPS,ioos:station:USF.COMPS:BGC:1,2013-05-02T17:24:00Z,26.4040,-81.8810,-0.118,1111122 
COMPS,ioos:station:USF.COMPS:BGC:1,2013-05-02T17:30:00Z,26.4040,-81.8810,-0.131,1111122 
COMPS,ioos:station:USF.COMPS:BGC:1,2013-05-02T17:36:00Z,26.4040,-81.8810,-0.13,1111122 
COMPS,ioos:station:USF.COMPS:BGC:1,2013-05-02T17:42:00Z,26.4040,-81.8810,-0.064,1111122 
COMPS,ioos:station:USF.COMPS:BGC:1,2013-05-02T17:48:00Z,26.4040,-81.8810,-0.102,1111122 
COMPS,ioos:station:USF.COMPS:BGC:1,2013-05-02T17:54:00Z,26.4040,-81.8810,-0.092,1111122 